Weather History for Culdrose, United Kingdom

Change the Weather History Date:

Tuesday, November 29, 2011

  Actual Average Record
Temperature  
Mean Temperature 51 °F -  
Max Temperature 56 °F 47 °F 57 °F (2000)
Min Temperature 46 °F 40 °F 30 °F (2010)
Degree Days  
Heating Degree Days 14    
Growing Degree Days 1 (Base 50)    
Moisture  
Dew Point 48 °F    
Average Humidity 86    
Maximum Humidity 100    
Minimum Humidity 67    
Precipitation  
Precipitation 0.08 in - - ()
Sea Level Pressure  
Sea Level Pressure 29.76 in    
Wind  
Wind Speed 21 mph ()    
Max Wind Speed 33 mph    
Max Gust Speed 59 mph    
Visibility 5.1 miles    
Events Rain    
Averages and records for this station are not official NWS values.
T = Trace of Precipitation, MM = Missing Value Source: Averaged Metar Reports

Daily Weather History Graph

Daily Weather History Graph

Search for Another Location

Airport:

Trip Planner

Search our weather history database for the weather conditions in past years. The results will help you decide how hot, cold, wet, or windy it might be!

Date:

Astronomy

Nov. 29, 2011 Rise Set
Actual Time 7:54 AM GMT 4:23 PM GMT
Civil Twilight 7:17 AM GMT 5:00 PM GMT
Nautical Twilight 6:36 AM GMT 5:41 PM GMT
Astronomical Twilight 5:58 AM GMT 6:20 PM GMT
Moon 11:24 AM GMT (11/29) 9:12 PM GMT (11/29)
Length of Visible Light 9h 42m
Length of Day
8h 28m
Waxing Crescent, 22% of the Moon is Illuminated
Nov 29
Waxing Crescent
Dec 2
First Quarter
Dec 10
Full
Dec 18
Last Quarter
Dec 24
New

Hourly Weather History & Observations

Time (GMT) Temp. Windchill Dew Point Humidity Pressure Visibility Wind Dir Wind Speed Gust Speed Precip Events Conditions
12:50 AM 55.4 °F - 53.6 °F 94% 29.86 in 6.2 mi SSW 21.9 mph 36.8 mph N/A   Mostly Cloudy
1:50 AM 55.4 °F - 53.6 °F 94% 29.83 in 6.2 mi SSW 20.7 mph 33.4 mph N/A   Overcast
2:50 AM 56 °F - 53 °F 86% 29.80 in 6 mi SSW 20.7 mph - -   Overcast
2:50 AM 55.4 °F - 53.6 °F 94% 29.77 in 6.2 mi SSW 20.7 mph 38.0 mph N/A   Mostly Cloudy
3:50 AM 55.4 °F - 53.6 °F 94% 29.74 in 6.2 mi SSW 20.7 mph 39.1 mph N/A   Scattered Clouds
4:50 AM 55.4 °F - 53.6 °F 94% 29.71 in 6.2 mi SSW 21.9 mph 38.0 mph N/A   Scattered Clouds
5:50 AM 55 °F - 53 °F 90% 29.70 in 6 mi SSW 21.9 mph - -   Overcast
5:50 AM 55.4 °F - 53.6 °F 94% 29.68 in 6.2 mi SSW 21.9 mph 41.4 mph N/A   Overcast
6:50 AM 55.4 °F - 51.8 °F 88% 29.65 in 6.2 mi SSW 29.9 mph 47.2 mph N/A   Overcast
7:50 AM 55.4 °F - 53.6 °F 94% 29.62 in 6.2 mi SSW 24.2 mph 42.6 mph N/A   Haze
8:50 AM 55 °F - 53 °F 90% 29.63 in 3 mi SSW 25.3 mph - - Rain Light Rain
8:50 AM 55.4 °F - 53.6 °F 94% 29.62 in 3.1 mi SSW 25.3 mph 51.8 mph N/A Rain Light Rain
9:50 AM 57.2 °F - 53.6 °F 88% 29.59 in 2.5 mi SSW 26.5 mph 50.6 mph N/A Rain Light Rain
9:58 AM 55.4 °F - 51.8 °F 88% 29.59 in 1.6 mi SSW 27.6 mph 51.8 mph N/A Rain Light Rain
10:28 AM 53.6 °F - 53.6 °F 100% 29.59 in 1.2 mi SSW 33.4 mph 56.4 mph N/A Rain Rain
10:50 AM 53.6 °F - 53.6 °F 100% 29.56 in 1.6 mi SSW 33.4 mph 58.7 mph N/A Rain Light Rain
11:50 AM 54 °F - 54 °F 99% 29.58 in 2 mi SW 33.4 mph - - Rain Light Rain
11:50 AM 55.4 °F - 53.6 °F 94% 29.56 in 1.9 mi SW 33.4 mph 55.2 mph N/A Rain Light Rain
12:03 PM 55.4 °F - 53.6 °F 94% 29.56 in 4.3 mi WSW 29.9 mph 49.5 mph N/A Rain Light Rain
12:50 PM 50.0 °F - 46.4 °F 87% 29.65 in 6.2 mi WNW 21.9 mph 39.1 mph N/A   Haze
1:08 PM 50.0 °F - 46.4 °F 87% 29.65 in 6.2 mi WNW 21.9 mph 38.0 mph N/A   Mostly Cloudy
1:39 PM 50.0 °F - 46.4 °F 87% 29.68 in 4.3 mi WNW 28.8 mph 41.4 mph N/A Rain Light Rain Showers
1:50 PM 48.2 °F - 44.6 °F 87% 29.71 in 6.2 mi WNW 25.3 mph 43.7 mph N/A   Mostly Cloudy
3:50 PM 48.2 °F - 39.2 °F 71% 29.83 in 5.0 mi West 17.3 mph 32.2 mph N/A   Scattered Clouds
4:00 PM 46.4 °F 39.0 °F 41.0 °F 81% 29.83 in 4.3 mi West 19.6 mph 44.9 mph N/A Rain Rain Showers
4:50 PM 46.4 °F 40.1 °F 39.2 °F 76% 29.89 in 6.2 mi WNW 15.0 mph 26.5 mph N/A   Partly Cloudy
5:50 PM 46 °F - 39 °F 67% 29.94 in 9 mi WNW 18.4 mph - -   Partly Cloudy
5:50 PM 46.4 °F 39.2 °F 39.2 °F 76% 29.92 in 6.2 mi WNW 18.4 mph - N/A   Partly Cloudy
6:50 PM 48.2 °F - 39.2 °F 71% 29.95 in 6.2 mi West 16.1 mph - N/A   Partly Cloudy
7:50 PM 48.2 °F - 39.2 °F 71% 29.98 in 6.2 mi West 19.6 mph 33.4 mph N/A   Partly Cloudy
8:50 PM 48 °F - 41 °F 70% 30.03 in 7 mi West 10.4 mph - - Rain Light Rain Showers
8:50 PM 48.2 °F - 41.0 °F 76% 30.01 in 6.2 mi West 10.4 mph 27.6 mph N/A   Partly Cloudy
10:50 PM 50.0 °F - 41.0 °F 71% 30.06 in 6.2 mi WSW 16.1 mph 33.4 mph N/A   Scattered Clouds
11:50 PM 50.0 °F - 41.0 °F 71% 30.06 in 6.2 mi WSW 16.1 mph 34.5 mph N/A   Scattered Clouds